Weather History for Emporia, KS

Change the Weather History Date:

Tuesday, August 21, 2012

  Actual Average Record
Temperature  
Mean Temperature 77 °F 77 °F  
Max Temperature 94 °F 89 °F 106 °F (2003)
Min Temperature 59 °F 65 °F 50 °F (2004)
Degree Days  
Heating Degree Days 0 0  
Month to date heating degree days 0 0  
Since 1 June heating degree days 11 8  
Since 1 July heating degree days 0 0  
Cooling Degree Days 12 12  
Month to date cooling degree days 263 281  
Year to date cooling degree days 1587 1097  
Since 1 June cooling degree days 1309 978  
Growing Degree Days 27 (Base 50)    
Moisture  
Dew Point 43 °F    
Average Humidity 36    
Maximum Humidity 56    
Minimum Humidity 15    
Precipitation  
Precipitation 0.00 in 0.15 in 0.06 in (2002)
Month to date precipitation 0.86 2.24  
Year to date precipitation 12.17 25.03  
Sea Level Pressure  
Sea Level Pressure 30.01 in    
Wind  
Wind Speed 8 mph (South)    
Max Wind Speed 15 mph    
Max Gust Speed 18 mph    
Visibility 10 miles    
Events      
T = Trace of Precipitation, MM = Missing Value Source: NWS Daily Summary

Daily Weather History Graph

Daily Weather History Graph

Search for Another Location

Airport:

Trip Planner

Search our weather history database for the weather conditions in past years. The results will help you decide how hot, cold, wet, or windy it might be!

Date:

Astronomy

Aug. 21, 2012 Rise Set
Actual Time 6:45 AM CDT 8:09 PM CDT
Civil Twilight 6:17 AM CDT 8:37 PM CDT
Nautical Twilight 5:44 AM CDT 9:10 PM CDT
Astronomical Twilight 5:09 AM CDT 9:45 PM CDT
Moon 11:11 AM CDT (8/21) 10:15 PM CDT (8/21)
Length of Visible Light 14h 20m
Length of Day
13h 24m
Waxing Crescent, 19% of the Moon is Illuminated
Aug 21
Waxing Crescent
Aug 24
First Quarter
Aug 31
Full
Sep 8
Last Quarter
Sep 15
New

Hourly Weather History & Observations

Time (CDT) Temp. Dew Point Humidity Pressure Visibility Wind Dir Wind Speed Gust Speed Precip Events Conditions
12:53 AM 64.9 °F 46.0 °F 50% 29.99 in 10.0 mi SSW 8.1 mph - N/A   Clear
1:53 AM 63.0 °F 46.0 °F 54% 29.99 in 10.0 mi South 9.2 mph - N/A   Clear
2:53 AM 63.0 °F 46.0 °F 54% 29.99 in 10.0 mi South 9.2 mph - N/A   Clear
3:53 AM 64.0 °F 45.0 °F 50% 29.99 in 10.0 mi South 10.4 mph - N/A   Clear
4:53 AM 62.1 °F 44.1 °F 52% 29.99 in 10.0 mi South 9.2 mph - N/A   Clear
5:53 AM 62.1 °F 43.0 °F 50% 30.00 in 10.0 mi SSW 5.8 mph - N/A   Clear
6:53 AM 61.0 °F 43.0 °F 52% 30.01 in 10.0 mi SW 5.8 mph - N/A   Clear
7:53 AM 68.0 °F 45.0 °F 43% 30.02 in 10.0 mi SW 4.6 mph - N/A   Clear
8:53 AM 78.1 °F 44.1 °F 30% 30.03 in 10.0 mi West 5.8 mph - N/A   Clear
9:53 AM 81.0 °F 46.0 °F 29% 30.04 in 10.0 mi WNW 3.5 mph - N/A   Clear
10:53 AM 86.0 °F 44.1 °F 23% 30.05 in 10.0 mi West 9.2 mph - N/A   Clear
11:53 AM 88.0 °F 43.0 °F 21% 30.04 in 10.0 mi Variable 4.6 mph - N/A   Clear
12:53 PM 90.0 °F 42.1 °F 19% 30.04 in 10.0 mi SSE 10.4 mph - N/A   Clear
1:53 PM 91.0 °F 41.0 °F 17% 30.03 in 10.0 mi South 8.1 mph - N/A   Clear
2:53 PM 91.9 °F 41.0 °F 17% 30.01 in 10.0 mi SE 6.9 mph - N/A   Partly Cloudy
3:53 PM 91.9 °F 41.0 °F 17% 29.99 in 10.0 mi SE 10.4 mph 16.1 mph N/A   Clear
4:53 PM 93.0 °F 39.9 °F 16% 29.99 in 10.0 mi South 8.1 mph - N/A   Clear
5:53 PM 91.9 °F 39.0 °F 16% 29.98 in 10.0 mi ESE 5.8 mph - N/A   Clear
6:53 PM 91.0 °F 39.9 °F 17% 29.98 in 10.0 mi SE 5.8 mph - N/A   Clear
7:53 PM 84.9 °F 42.1 °F 22% 29.98 in 10.0 mi SE 5.8 mph - N/A   Clear
8:53 PM 78.1 °F 44.1 °F 30% 29.99 in 10.0 mi SSE 8.1 mph - N/A   Clear
9:53 PM 75.9 °F 44.1 °F 32% 30.00 in 10.0 mi South 6.9 mph - N/A   Clear
10:53 PM 69.1 °F 46.0 °F 44% 30.01 in 10.0 mi North - - N/A   Clear
11:53 PM 68.0 °F 45.0 °F 43% 30.01 in 10.0 mi SSW 10.4 mph - N/A   Clear